Regional Weather Roundup
Issued by NWS

Home | Current Version | Previous Version | Graphics & Text | Print | Product List | Glossary On
Versions: 1 2 3 4 5 6 7 8 9 10 11 12 13 14 15 16 17 18 19 20 21 22 23 24 25 26 27 28 29 30 31 32 33 34 35 36 37 38 39 40 41 42 43 44 45 46 47 48 49 50
000
ASUS43 KLMK 240010
RWRKY
KENTUCKY REGIONAL WEATHER ROUNDUP
NATIONAL WEATHER SERVICE LOUISVILLE KY
800 PM EDT SAT MAY 23 2015

NOTE "FAIR" INDICATES FEW OR NO CLOUDS BELOW 12,000 FEET
WITH NO SIGNIFICANT WEATHER AND/OR OBSTRUCTIONS TO VISIBILITY.

KYZ001>023-026-027-061>063-070>075-240100-
WESTERN AND SOUTH CENTRAL KENTUCKY

CITY           SKY/WX    TMP DP  RH WIND       PRES   REMARKS
PADUCAH        MOSUNNY   76  53  44 SE8       30.18F
HENDERSON      PTSUNNY   75  48  38 SE3       30.21F
OWENSBORO      MOCLDY    76  51  41 SE7       30.23F
HOPKINSVILLE   PTCLDY    77  51  39 SE5       30.22S
BOWLING GREEN  CLEAR     77  53  43 E5        30.24F
GLASGOW        PTCLDY    76  51  40 CALM      30.24S
$$

KYZ024-025-028>034-038-045-046-053-240100-
NORTH CENTRAL KENTUCKY

CITY           SKY/WX    TMP DP  RH WIND       PRES   REMARKS
LOUISVILLE/SDF PTCLDY    78  46  32 S9        30.24S
LOUISVILLE/LOU CLEAR     79  45  29 S6        30.25S
FORT KNOX      CLEAR     76  48  37 S6        30.23F
$$

KYZ035>037-039>044-047>052-055>060-089>105-240100-
NORTHEAST KENTUCKY

CITY           SKY/WX    TMP DP  RH WIND       PRES   REMARKS
LEXINGTON      CLEAR     75  47  36 SE6       30.28F
COVINGTON      PTCLDY    73  49  42 SE9       30.27F
FRANKFORT      CLEAR     75  46  35 SE7       30.26F
$$

KYZ054-064>069-076>088-106>120-240100-
SOUTHEAST KENTUCKY

CITY           SKY/WX    TMP DP  RH WIND       PRES   REMARKS
JACKSON        MOCLDY    71  49  45 CALM      30.31S
LONDON         PTCLDY    76  47  35 E5        30.29F
SOMERSET       CLEAR     73  46  38 SE3       30.28F
MIDDLESBORO    MOCLDY    72  55  55 CALM      30.30S
MONTICELLO     CLEAR     76  55  47 S8        30.30F
$$




USA.gov is the U.S. government's official web portal to all federal, state and local government web resources and services.